Погода в Крайльсхайм

Германия     49°08′14″N   10°04′16″E
темп.,
°C
ветер,
м/с
пор.,
м/с
влажн.,
%
обл.,
%
осадки,
мм/ч
давл.,
гПа
погр.,
м
15 августа, пн
пн1523:00+23ююв3850100 0.0 1006221
02:00+19зюз41061100 0.0 1007275
05:00+18з5117199 0.0 1007371
08:00+18з5974100 0.0 1008410
11:00+23з4551100 0.0 10081140
14:00+27з443661 0.0 10062326
17:00+28з342815 0.0 10052441
20:00+22юз61154100 0.1 1007471
16 августа, вт
вт1623:00+20юз5105367 0.1 1009366
02:00+15юз37743 0.1 1010129
05:00+14ю22825 0.0 101029
08:00+18ю34625 0.0 1010170
11:00+25юз46415 0.0 10101700
14:00+29зюз45305 0.0 10102300
17:00+30з33255 0.0 10092776
20:00+25с22321 0.0 100914
17 августа, ср
ср1723:00+20всв36480 0.0 101180
02:00+18вюв3754100 0.0 101199
05:00+18юв356084 0.0 101177
08:00+20зюз585353 0.0 1013374
11:00+25сз674279 0.0 1013928
14:00+23ссз3455100 0.2 1013534
17:00+28с32335 0.0 10111376
20:00+24с3543100 0.1 101092
18 августа, чт
чт1823:00+17ю5789100 2.7 1014133
02:00+16з2792100 6.2 1014183
05:00+16зсз2697100 1.8 1014184
08:00+16з2697100 3.5 1014233
11:00+17зсз2493100 2.1 1014194
14:00+20з2373100 2.8 1014539
17:00+21с2267100 0.6 1014748
20:00+18ссв4768100 1.1 1013180
19 августа, пт
пт1923:00+16св1170100 0.0 101411
02:00+15юз227975 0.0 101424
05:00+15юз3587100 0.0 1013127
08:00+15з3896100 0.7 1013359
11:00+17ссз5893100 0.6 1013521
14:00+16зсз5896100 1.0 1013577
17:00+17сз4889100 1.1 1014541
20:00+16з479386 1.2 1014224